Temp
17 16 16 16 17 16 17 16 16 16 16 15 15 15 14 14 13 12 12 12 11 11 11 11 11 10 10 10 9 9 9 9 9 8 8 8 8 8 7 7 7 7 7
17 16 16 16 16 16 16 16 16 16 16 15 15 15 14 14 13 13 12 12 12 11 11 11 11 10 10 9 9 9 9 9 9 8 8 8 8 7 7 7 7 7 7
17 16 16 16 16 16 16 16 15 15 15 15 15 15 15 14 14 13 13 12 12 12 11 11 11 11 10 10 9 9 9 9 8 8 8 7 7 7 7 7 6 6 6
16 17 16 16 16 16 16 15 15 15 15 15 15 15 15 15 14 14 14 14 13 12 11 11 11 11 11 10 10 9 9 9 8 8 7 7 7 7 6 6 6 6 6
17 17 16 16 16 16 15 16 16 16 15 15 15 15 15 15 15 15 14 14 14 13 12 11 11 11 11 11 10 10 9 9 8 8 7 7 6 6 6 6 6 6 6
16 17 16 16 16 16 16 15 16 15 15 15 15 15 14 14 14 15 15 14 13 13 12 12 11 11 11 11 11 10 9 9 9 8 7 6 7 6 6 5 5 5 5
16 16 16 16 15 16 16 16 15 15 15 14 14 13 14 14 14 14 14 13 13 13 12 12 12 12 11 11 11 10 10 9 9 8 8 7 7 6 6 5 4 4 4
16 16 16 16 16 16 16 16 15 15 15 14 14 13 11 12 13 13 13 13 13 13 13 12 12 12 12 11 11 11 10 10 9 9 8 7 6 6 6 5 4 4 4
16 16 16 16 16 16 16 16 15 15 15 14 14 14 10 11 11 12 13 13 13 13 12 12 12 12 12 12 11 11 10 10 9 9 8 7 6 5 5 4 4 4 4
16 16 16 16 16 16 16 16 16 15 14 14 12 13 13 12 10 10 11 11 11 11 12 11 11 11 11 11 11 10 10 10 9 9 8 7 6 5 5 4 4 4 3
16 16 16 16 16 16 16 16 15 15 14 14 13 11 10 10 10 9 9 10 11 12 11 11 11 11 11 11 10 10 10 9 9 9 8 7 6 5 5 5 4 4 3
17 16 16 16 16 16 15 15 15 15 14 14 13 13 12 9 8 8 7 8 9 10 11 11 11 11 11 10 9 9 9 9 9 9 8 7 6 6 5 5 4 4 4
16 16 17 16 16 16 16 15 15 14 13 13 13 12 12 11 10 9 8 8 8 9 9 10 10 10 10 9 9 9 9 9 8 8 8 7 6 6 5 5 5 4 4
16 16 16 16 16 16 16 15 13 12 12 13 13 12 11 10 9 9 9 8 6 6 7 9 9 8 8 8 8 8 8 8 8 7 7 7 7 6 5 5 4 4 3
15 15 15 16 16 15 15 14 13 12 12 12 12 10 10 10 9 8 8 8 7 5 5 7 7 8 8 7 7 7 7 7 7 7 7 7 6 6 5 5 4 3 3
14 15 14 13 13 14 14 13 12 12 11 11 10 10 9 9 8 7 7 7 6 6 5 6 6 7 7 7 7 7 7 7 7 7 7 7 6 6 5 4 3 2 2
14 13 13 13 12 13 12 12 12 11 11 10 9 8 8 8 7 6 6 6 5 5 4 5 6 6 6 6 6 6 6 6 6 6 6 6 6 5 4 3 3 2 2
15 14 13 12 12 12 12 12 11 11 10 10 9 7 6 6 6 5 5 5 5 5 4 3 4 4 4 5 4 4 5 4 4 5 5 5 5 5 5 4 3 2 1
15 14 14 11 12 12 12 11 11 10 9 8 7 6 6 5 5 5 5 5 5 4 3 2 1 2 2 3 3 3 3 3 3 3 3 3 4 4 4 3 3 2 1
13 12 11 11 11 11 10 10 9 9 8 7 6 6 5 5 5 4 4 4 4 3 2 1 1 0 1 1 0 -0 -1 -0 -0 0 1 1 1 2 2 2 1 0 -0
13 12 11 10 10 9 9 9 8 7 6 5 5 4 4 4 4 4 4 3 2 2 1 0 -0 -1 -2 -2 -2 -2 -2 -3 -3 -2 -1 -1 -0 0 1 2 1 -0 -1
11 11 10 10 9 8 9 8 7 6 5 5 4 3 3 2 3 3 2 2 1 0 -1 -2 -3 -4 -4 -3 -3 -4 -4 -4 -4 -3 -2 -3 -2 -2 -1 -0 1 -0 -0
9 9 8 8 7 7 7 6 6 5 4 4 3 2 2 1 1 1 0 0 -0 -2 -3 -3 -4 -4 -4 -4 -5 -5 -5 -5 -5 -5 -4 -4 -4 -3 -2 -1 -1 -2 -2
8 7 7 7 6 6 5 5 4 4 3 2 2 2 1 0 -0 -1 -1 -1 -2 -2 -3 -4 -5 -5 -5 -5 -5 -5 -5 -4 -4 -4 -3 -4 -3 -3 -2 -2 -1 -2 -1
6 6 5 5 5 4 4 4 4 3 2 1 1 0 -0 -1 -2 -2 -3 -3 -3 -4 -5 -5 -5 -5 -5 -5 -5 -5 -4 -4 -4 -4 -3 -3 -3 -2 -3 -2 -2 -2 -1
5 5 4 4 4 3 3 2 3 2 1 0 -1 -2 -2 -2 -3 -4 -5 -5 -6 -6 -6 -6 -5 -5 -5 -5 -5 -5 -5 -4 -4 -4 -3 -3 -3 -3 -4 -4 -3 -1 -1
Height
824 827 830 833 833 838 837 844 847 852 852 855 858 860 861 862 865 866 869 871 873 874 875 876 878 879 881 882 883 885 885 884 885 886 886 885 886 885 884 884 884 884 883
825 827 831 832 836 838 840 845 849 851 854 858 859 860 862 864 865 866 868 870 872 874 876 878 878 880 880 882 881 883 884 884 885 885 885 885 884 885 885 884 883 883 883
824 829 831 833 836 838 842 843 849 853 856 859 859 861 862 864 864 866 868 870 871 872 873 875 879 879 880 881 882 882 883 883 884 884 884 884 884 883 884 884 883 883 883
825 828 831 835 834 839 842 845 850 853 856 858 858 860 861 862 863 864 866 867 868 869 871 872 876 878 878 879 880 882 882 882 883 883 883 883 882 882 882 882 883 882 882
824 830 833 835 834 839 843 845 849 852 854 856 858 859 860 860 861 863 863 865 866 867 869 871 873 875 876 877 878 880 881 881 882 881 881 881 881 881 881 881 881 881 880
827 830 833 834 837 839 841 845 848 851 854 856 859 860 861 861 861 861 862 864 866 866 869 869 870 871 873 874 875 877 878 878 878 879 880 880 879 880 880 879 879 879 878
828 830 833 835 838 838 841 843 849 851 854 856 859 860 859 859 860 859 860 862 862 864 864 866 868 868 868 870 872 873 875 876 876 877 878 878 877 877 877 877 876 876 875
825 828 832 836 836 838 839 842 846 848 851 853 855 856 858 857 855 856 857 856 858 861 862 863 864 864 865 866 867 869 871 872 874 874 874 874 874 873 873 873 873 873 872
825 829 832 832 835 835 838 841 843 845 847 850 849 851 856 852 850 849 850 852 852 855 857 859 860 860 861 862 863 864 866 867 869 870 870 870 869 869 869 869 868 868 867
823 826 828 830 829 831 834 837 840 842 843 845 846 847 847 846 849 851 848 848 849 850 852 855 856 856 857 858 859 860 860 861 862 863 865 865 865 865 865 864 864 863 863
820 821 822 824 824 825 830 832 835 836 838 839 840 841 843 843 846 846 847 845 846 847 848 848 851 851 853 854 855 856 856 857 857 858 859 860 860 860 860 859 858 859 858
814 815 817 819 819 822 824 827 829 830 831 833 834 835 836 838 840 843 843 842 843 844 845 844 847 849 850 850 850 851 851 852 852 852 852 852 854 854 854 854 853 853 852
808 810 812 814 816 818 820 822 822 823 824 826 827 829 831 832 834 836 838 840 841 843 843 843 843 846 847 847 847 847 846 845 844 845 845 846 846 847 847 847 847 846 846
804 807 809 811 813 813 814 816 817 817 819 822 823 825 827 830 830 833 835 838 841 841 840 840 841 843 844 844 843 843 842 841 840 840 841 840 840 839 838 838 838 839 839
803 806 806 806 807 808 810 808 812 813 814 816 819 821 823 825 827 831 833 834 836 838 838 838 838 838 839 839 838 837 836 835 835 836 835 835 834 832 831 830 830 832 833
799 800 799 800 802 804 803 806 808 810 810 812 815 817 820 823 826 829 831 832 834 836 836 835 834 835 835 834 833 832 830 828 828 828 827 826 825 823 822 823 825 827 827
791 790 787 791 795 796 797 799 801 806 807 810 812 814 816 820 824 827 829 830 831 832 832 831 830 831 830 829 828 826 824 821 819 819 818 817 816 814 814 814 816 815 816
781 781 782 786 790 791 793 794 795 800 802 805 808 811 815 818 822 825 826 827 827 829 829 827 827 826 826 824 822 820 820 819 816 812 811 808 806 804 803 803 802 802 801
773 774 776 783 784 787 787 788 790 794 797 801 804 810 812 816 819 822 822 825 823 824 825 825 824 823 820 819 816 814 810 809 810 807 803 800 797 795 793 792 791 790 793
768 771 775 776 778 780 781 782 787 791 794 798 803 806 810 814 816 818 818 820 820 821 822 821 820 819 817 815 813 810 804 804 801 800 796 793 790 786 784 783 784 784 784
760 764 767 769 770 773 775 779 783 786 792 797 802 805 809 811 813 814 815 817 818 818 818 818 818 817 814 812 812 809 804 797 794 794 787 784 781 777 775 773 773 774 775
752 757 761 762 766 770 773 778 781 786 791 797 800 804 806 808 810 811 814 815 815 814 815 815 815 815 813 810 807 805 802 796 789 789 784 776 777 772 769 768 767 766 768
746 751 758 761 764 769 773 778 781 786 791 796 799 802 804 807 809 810 811 811 812 814 813 812 811 810 808 805 802 798 797 794 789 785 783 770 770 765 763 761 761 760 761
744 750 754 759 764 769 774 779 783 787 792 796 799 801 804 806 808 809 809 810 811 810 809 809 808 805 803 800 798 794 790 785 780 778 777 768 763 758 757 755 755 755 759
745 750 755 760 765 771 776 780 784 788 793 796 799 802 804 806 806 807 808 807 807 806 806 805 802 800 798 796 794 790 786 782 774 768 769 764 757 755 751 748 747 751 755
744 750 756 762 767 772 778 782 785 788 792 796 799 802 803 805 806 807 806 805 805 805 802 799 797 794 791 789 787 786 781 777 774 765 760 760 756 754 748 743 743 749 752
Wind_Speed
33 32 31 28 25 22 24 21 19 17 17 17 15 14 14 13 14 14 15 13 14 14 13 12 11 11 10 9 8 7 6 8 7 7 7 8 8 9 11 10 11 12 13
36 32 31 28 24 21 19 17 16 15 16 14 13 12 12 13 13 12 14 14 12 12 11 11 10 9 9 7 6 5 4 4 4 4 5 6 7 7 9 9 10 11 12
35 32 28 25 22 18 17 15 15 16 15 14 11 11 11 12 11 11 12 13 12 11 12 13 12 11 9 7 6 5 3 3 3 2 3 4 5 6 7 9 10 10 11
33 27 25 23 19 17 16 15 15 15 12 12 13 12 12 12 11 12 11 11 11 14 15 15 15 13 10 9 8 6 5 5 4 2 2 3 4 4 5 7 8 9 10
25 24 23 20 18 17 18 16 15 14 15 14 13 16 16 14 13 13 12 13 13 14 17 18 16 14 12 10 10 8 8 7 5 3 3 0 1 3 5 6 7 9 10
23 20 20 18 19 19 20 18 17 16 17 16 16 16 16 16 15 15 14 15 15 15 18 19 17 17 15 14 12 11 11 10 7 7 6 5 6 8 7 6 7 9 11
22 20 18 17 21 21 22 20 19 17 18 16 14 16 17 19 20 18 17 18 18 17 18 19 19 18 18 16 15 14 13 12 11 11 11 10 10 11 10 8 7 9 11
15 15 19 21 20 21 23 23 24 22 21 18 9 4 2 8 21 23 23 22 22 20 21 21 20 19 19 19 18 17 16 16 15 15 14 15 13 13 11 8 7 9 11
14 20 22 23 23 22 22 24 25 25 22 20 19 8 1 4 1 13 25 26 25 24 25 25 25 23 22 23 23 22 22 23 21 18 18 18 16 14 12 9 9 10 11
20 22 27 28 26 23 26 27 27 28 26 22 17 20 13 5 3 2 8 18 23 22 21 25 27 27 27 28 28 27 26 27 26 23 22 22 20 18 16 13 12 12 12
29 27 26 30 29 29 30 30 30 31 31 29 25 13 17 13 10 2 3 5 11 19 18 21 20 22 25 26 27 29 28 29 29 29 28 25 24 22 20 18 16 15 14
36 32 31 31 33 34 33 33 33 34 33 33 29 27 22 8 11 9 2 7 8 8 12 10 13 14 18 18 16 19 23 32 34 34 34 31 27 26 24 23 20 19 18
42 39 36 38 37 38 38 34 34 35 33 31 30 30 30 25 20 20 15 5 6 9 5 10 14 14 16 18 17 18 20 23 30 37 37 35 33 30 29 28 25 24 21
41 40 38 40 41 40 37 32 31 29 25 25 27 28 25 23 21 20 15 10 2 4 3 10 9 13 15 16 18 20 20 23 23 31 36 38 38 37 37 34 30 27 24
35 36 36 37 38 40 35 37 33 24 25 26 27 23 20 21 20 19 14 11 6 2 3 5 5 17 18 19 21 21 24 24 20 21 25 31 39 43 44 42 36 28 25
33 37 40 37 37 35 36 32 29 27 25 23 22 22 19 16 17 15 12 10 10 10 3 8 13 22 22 23 24 25 27 28 28 30 32 33 35 39 46 43 32 27 29
30 29 36 29 40 33 30 26 27 26 22 21 20 18 18 16 15 12 10 9 11 12 10 12 18 22 23 23 27 29 31 31 33 34 35 37 38 40 41 42 40 38 35
25 22 30 33 34 31 28 31 29 27 24 22 20 20 17 14 13 11 9 9 10 12 14 15 17 17 21 24 26 28 30 31 33 34 35 36 36 36 36 41 48 45 46
34 30 34 35 28 29 30 32 28 26 23 22 21 19 18 15 12 10 8 11 11 13 12 11 11 15 21 23 26 28 30 31 31 32 33 34 37 38 43 44 41 48 48
34 32 33 33 32 31 32 29 26 24 21 21 20 17 15 13 12 10 10 10 9 9 9 12 16 20 21 26 28 25 30 27 30 31 36 37 37 39 38 36 43 39 33
32 29 28 27 28 29 28 27 24 22 22 19 18 15 13 11 10 9 7 6 6 9 13 16 19 21 22 21 22 24 26 30 28 27 30 32 35 37 37 37 37 37 34
28 28 29 27 27 24 22 22 23 23 22 22 20 15 13 10 8 7 8 9 11 10 12 12 15 17 19 23 25 24 24 22 14 19 16 31 28 32 37 34 36 34 32
30 29 28 25 22 20 20 20 22 23 23 20 17 16 12 7 6 6 7 10 10 7 8 10 14 17 21 23 26 27 22 22 24 27 25 32 29 31 34 34 30 28 20
29 26 22 21 21 21 21 22 22 21 19 16 14 11 9 7 5 6 6 6 7 7 7 9 14 19 21 22 21 22 26 28 29 27 22 21 27 29 29 31 31 23 19
22 21 22 23 24 24 22 21 21 20 16 12 9 6 5 5 5 5 5 6 9 10 12 14 14 17 19 21 19 23 22 20 22 27 21 22 27 26 28 29 25 19 20
24 25 25 24 26 25 21 19 17 17 14 11 7 5 3 4 3 2 3 6 8 11 15 16 18 17 16 16 17 17 22 22 21 22 16 14 21 19 7 10 14 16 15
Wind_Direction
154 151 149 146 137 138 126 132 131 134 132 139 146 147 145 143 145 142 143 145 148 146 145 144 143 141 138 131 122 117 107 90 79 68 62 57 41 40 39 37 31 24 20
164 158 153 147 145 136 127 134 135 135 139 151 148 150 153 157 157 154 159 165 164 163 160 164 167 169 167 162 148 140 126 106 83 68 63 48 39 32 27 27 19 12 7
165 164 158 154 146 138 145 140 148 153 149 152 155 160 162 167 168 170 172 178 181 184 189 185 190 190 192 197 193 178 163 159 137 94 73 49 34 30 19 10 5 357 354
166 164 165 170 150 156 164 161 163 165 168 169 170 181 183 181 180 185 186 194 200 201 201 205 204 202 201 202 207 210 206 194 187 157 120 48 38 24 11 356 346 344 346
167 173 178 175 168 179 184 180 181 189 191 191 196 193 197 195 197 199 206 213 215 212 212 212 218 216 227 231 220 226 225 216 214 203 190 104 360 344 346 338 334 332 331
181 182 185 181 187 194 194 198 202 208 214 206 212 218 217 216 212 215 225 222 221 218 221 221 222 228 237 240 244 234 229 223 223 225 222 236 288 301 311 317 319 320 321
182 188 200 205 208 208 205 207 211 216 212 214 215 229 237 235 230 226 230 229 226 227 223 227 229 233 231 236 249 245 234 237 240 238 236 237 263 278 301 301 303 308 310
193 206 217 216 213 216 211 212 215 217 220 215 200 180 225 245 238 233 232 229 229 233 234 235 238 239 239 246 253 252 246 239 242 242 239 231 244 265 286 287 282 294 301
213 226 229 227 228 231 227 223 225 227 225 222 216 201 154 226 168 224 231 232 226 228 238 241 241 243 246 250 252 252 256 246 238 244 244 231 234 247 252 255 261 276 288
226 237 237 237 237 239 231 233 238 239 233 226 218 226 226 165 196 286 250 239 231 228 240 247 242 244 247 249 250 252 257 246 244 247 239 234 233 236 239 243 252 265 278
237 244 242 240 242 242 239 239 241 242 238 235 221 211 223 225 218 185 232 226 228 237 256 251 254 256 257 257 256 259 258 254 252 249 240 237 236 238 240 244 250 259 268
241 247 246 247 247 247 248 242 242 245 243 237 235 235 224 200 202 206 211 222 221 244 240 243 256 266 267 264 263 278 280 264 257 252 251 243 237 239 241 245 250 255 262
243 248 251 250 249 250 251 252 253 250 244 239 238 238 239 237 232 226 227 213 227 239 255 264 263 261 272 286 288 294 289 279 263 256 252 251 246 242 242 245 249 251 256
244 249 254 256 255 252 250 257 259 250 242 237 239 242 240 245 237 235 225 198 207 235 242 253 260 276 291 282 292 303 298 286 281 263 257 258 257 256 251 247 245 246 251
254 258 257 259 260 256 249 245 249 238 237 241 244 242 237 235 237 229 229 231 193 209 233 255 261 293 298 295 295 295 299 296 281 281 280 272 266 261 256 253 248 245 252
262 264 263 265 266 256 250 241 242 242 236 233 231 226 224 227 221 223 231 239 241 233 236 229 273 289 291 294 295 299 301 295 286 286 286 283 277 276 265 253 246 250 258
253 254 253 245 254 243 244 229 231 228 219 223 224 218 213 209 210 219 232 243 254 250 247 269 282 288 289 298 302 301 299 296 291 289 288 286 284 283 271 254 252 254 251
241 240 236 240 247 251 244 233 220 218 214 216 211 204 199 192 199 215 227 238 253 270 277 277 294 292 296 302 303 303 300 299 298 297 294 289 286 284 274 268 260 251 247
228 229 230 243 242 242 235 222 216 212 212 210 203 198 192 195 201 212 227 256 265 278 286 297 300 305 311 310 308 306 304 302 300 298 297 293 289 284 282 278 269 253 252
222 230 233 233 240 230 225 210 207 205 203 196 192 189 187 194 200 225 239 260 268 280 293 309 317 315 311 310 312 312 310 306 304 301 295 290 288 282 280 278 269 257 247
231 234 238 229 226 217 203 201 201 194 185 178 175 171 185 201 215 219 223 235 275 295 308 316 312 310 311 314 313 313 305 305 304 299 298 297 297 292 287 272 259 256 249
219 224 215 205 194 197 201 200 193 181 174 174 169 175 175 186 200 217 243 270 289 305 309 309 309 309 304 310 313 308 300 303 309 305 304 299 297 296 289 274 261 253 251
204 196 192 189 188 188 184 181 178 174 172 176 176 167 171 182 215 242 273 288 300 313 318 308 301 301 303 307 310 301 293 288 289 294 299 294 297 285 285 288 273 249 236
186 183 180 182 178 171 169 168 168 168 169 169 173 178 192 207 241 258 278 289 291 304 309 305 298 298 300 300 296 293 296 292 293 291 286 279 294 282 288 283 272 250 234
169 171 174 171 167 156 164 169 172 169 164 163 169 183 206 223 256 284 287 307 325 330 321 316 306 302 298 297 300 305 293 282 286 291 291 276 286 283 279 273 269 228 221
163 169 162 164 163 159 172 174 179 174 166 169 173 187 197 224 247 251 318 342 333 320 322 323 324 324 321 309 304 302 303 281 275 286 289 292 293 274 281 257 208 216 224